GW0064 Weather Reports


Display with metric or nautical units.
time (UTC)temp
F
wind
direction
speed
MPH
gust
MPH
rain 1hr
in
rain 24hr
in
rain mn
in
humidity
%
barometer
mb
20260906163501 0 60 5.0 11.0 0.00 0.67 0.00 1018.7
20260906163001 0 40 8.0 15.0 0.00 0.67 0.00 1018.6
20260906162502 0 60 9.0 15.0 0.00 0.67 0.00 1018.7
20260906161500 0 44 7.0 13.0 0.00 0.67 0.00 1018.8
20260906161001 0 32 8.0 12.0 0.00 0.67 0.00 1018.7
20260906160503 0 32 7.0 12.0 0.00 0.67 0.00 1018.7
20260906155501 0 30 7.0 11.0 0.00 0.67 0.00 1018.8
20260906154501 0 56 6.0 10.0 0.00 0.67 0.00 1018.7
20260906154000 0 51 5.0 9.0 0.00 0.67 0.00 1018.7
20260906153502 0 91 2.0 7.0 0.00 0.67 0.00 1018.6
20260906153001 0 99 4.0 8.0 0.00 0.67 0.00 1018.6
20260906152501 0 67 6.0 9.0 0.00 0.67 0.00 1018.6
20260906152001 0 34 5.0 9.0 0.00 0.67 0.00 1018.6
20260906151501 0 41 6.0 9.0 0.00 0.67 0.00 1018.5
20260906151001 0 48 6.0 11.0 0.00 0.67 0.00 1018.6
20260906150501 0 46 6.0 11.0 0.00 0.67 0.00 1018.6
20260906150005 0 39 5.0 11.0 0.00 0.67 0.00 1018.7
20260906145502 0 52 7.0 11.0 0.00 0.67 0.00 1018.8
20260906145002 0 39 7.0 11.0 0.00 0.67 0.00 1018.8
20260906144502 0 42 5.0 11.0 0.00 0.67 0.00 1018.8
20260906144001 0 41 5.0 12.0 0.00 0.67 0.00 1018.9
20260906143502 0 34 7.0 12.0 0.00 0.67 0.00 1018.8
20260906143002 0 12 7.0 9.0 0.00 0.67 0.00 1018.9
20260906142501 0 31 5.0 9.0 0.00 0.67 0.00 1018.9
20260906142001 0 30 5.0 10.0 0.00 0.67 0.00 1018.7
20260906141501 0 46 6.0 9.0 0.00 0.67 0.00 1018.7
20260906141002 0 37 5.0 9.0 0.00 0.67 0.00 1018.7
20260906140501 0 50 4.0 9.0 0.00 0.67 0.00 1018.7
20260906140004 0 100 5.0 9.0 0.00 0.67 0.00 1018.7
20260906135002 0 30 5.0 9.0 0.00 0.67 0.00 1018.6
20260906134501 0 52 6.0 11.0 0.00 0.67 0.00 1018.7
20260906134001 0 61 5.0 8.0 0.00 0.67 0.00 1018.8
20260906133503 0 93 5.0 11.0 0.00 0.67 0.00 1018.8
20260906133002 0 52 7.0 11.0 0.00 0.67 0.00 1018.8
20260906132502 0 41 5.0 10.0 0.00 0.67 0.00 1018.7
20260906132001 0 41 5.0 10.0 0.00 0.67 0.00 1018.6
20260906131500 0 62 5.0 8.0 0.00 0.67 0.00 1018.6
20260906131008 0 65 4.0 11.0 0.00 0.67 0.00 1018.7
20260906130500 0 45 6.0 11.0 0.00 0.67 0.00 1018.8
20260906130004 0 39 6.0 11.0 0.00 0.67 0.00 1018.7
20260906125003 0 45 4.0 7.0 0.00 0.67 0.00 1018.5
20260906124502 0 51 3.0 7.0 0.00 0.67 0.00 1018.4
20260906124001 0 58 4.0 8.0 0.00 0.67 0.00 1018.4
20260906123501 0 39 4.0 8.0 0.00 0.67 0.00 1018.4
20260906123001 0 53 3.0 7.0 0.00 0.67 0.00 1018.3
20260906122503 0 49 3.0 8.0 0.00 0.67 0.00 1018.3
20260906121500 0 30 4.0 7.0 0.00 0.67 0.00 1018.2
20260906121002 0 86 3.0 7.0 0.00 0.67 0.00 1018.1
20260906115502 0 44 3.0 7.0 0.00 0.67 0.00 1017.7
20260906115000 0 63 3.0 6.0 0.00 0.67 0.00 1017.7
20260906114502 0 37 3.0 7.0 0.00 0.67 0.00 1017.6
20260906114001 0 49 4.0 7.0 0.00 0.67 0.00 1017.5
20260906112001 0 40 2.0 4.0 0.00 0.67 0.00 1017.3
20260906111500 0 43 1.0 3.0 0.00 0.67 0.00 1017.1
20260906111001 0 36 2.0 5.0 0.00 0.67 0.00 1016.9
20260906110502 0 38 3.0 5.0 0.00 0.67 0.00 1016.9
20260906110005 0 35 2.0 4.0 0.00 0.67 0.00 1017.0
20260906105500 0 41 1.0 3.0 0.00 0.67 0.00 1017.0
20260906105001 0 48 1.0 4.0 0.00 0.67 0.00 1017.0
20260906104502 0 53 2.0 4.0 0.00 0.67 0.00 1016.9
20260906104001 0 35 2.0 3.0 0.00 0.67 0.00 1016.9
20260906103501 0 56 2.0 5.0 0.00 0.67 0.00 1016.9
20260906103000 0 45 2.0 5.0 0.00 0.67 0.00 1016.7
20260906102503 0 44 3.0 5.0 0.00 0.67 0.00 1016.7
20260906102000 0 39 2.0 4.0 0.00 0.67 0.00 1016.6
20260906101500 0 46 2.0 5.0 0.00 0.67 0.00 1016.5
20260906101002 0 75 2.0 5.0 0.00 0.67 0.00 1016.5
20260906095502 0 79 2.0 4.0 0.00 0.67 0.00 1016.5
20260906095001 0 65 2.0 4.0 0.00 0.67 0.00 1016.4
20260906094502 0 48 1.0 4.0 0.00 0.67 0.00 1016.4
20260906094003 0 46 1.0 5.0 0.00 0.67 0.00 1016.3
20260906093502 0 75 2.0 5.0 0.00 0.67 0.00 1016.3
20260906092001 0 56 3.0 6.0 0.00 0.67 0.00 1016.4
20260906091002 0 60 2.0 4.0 0.00 0.67 0.00 1016.3
20260906090500 0 33 2.0 4.0 0.00 0.67 0.00 1016.2
20260906090003 0 69 2.0 4.0 0.00 0.67 0.00 1016.2
20260906085501 0 99 1.0 5.0 0.00 0.67 0.00 1016.3
20260906085002 0 34 2.0 5.0 0.00 0.67 0.00 1016.3
20260906084001 0 42 2.0 4.0 0.00 0.67 0.00 1016.4
20260906083500 0 51 1.0 6.0 0.00 0.67 0.00 1016.3
20260906083000 0 69 1.0 6.0 0.00 0.67 0.00 1016.3
20260906082502 0 77 2.0 6.0 0.00 0.67 0.00 1016.2
20260906082000 0 70 2.0 6.0 0.00 0.67 0.00 1016.1
20260906081500 0 45 3.0 6.0 0.00 0.67 0.00 1016.0
20260906081000 0 69 2.0 6.0 0.00 0.67 0.00 1016.0
20260906080503 0 77 1.0 6.0 0.00 0.67 0.00 1016.0
20260906080003 0 74 2.0 4.0 0.00 0.67 0.00 1015.9
20260906075500 0 53 2.0 4.0 0.00 0.67 0.00 1015.9
20260906075001 0 50 1.0 4.0 0.00 0.67 0.00 1016.0
20260906072959 0 41 1.0 3.0 0.00 0.67 0.00 1016.1
20260906072504 0 39 1.0 4.0 0.00 0.67 0.00 1016.0
20260906071502 0 41 1.0 3.0 0.00 0.67 0.00 1016.1
20260906071001 0 52 2.0 3.0 0.00 0.67 0.00 1016.0
20260906070500 0 61 1.0 4.0 0.00 0.67 0.00 1016.0
20260906070004 0 74 2.0 5.0 0.00 0.67 0.00 1016.1
20260906065500 0 71 1.0 5.0 0.00 0.67 0.00 1016.0
20260906064459 0 56 2.0 5.0 0.00 0.67 0.00 1016.0
20260906063500 0 49 3.0 7.0 0.00 0.67 0.00 1016.0
20260906062501 0 80 3.0 6.0 0.00 0.67 0.00 1015.9
20260906060459 0 57 1.0 3.0 0.00 0.67 0.00 1015.9
20260906060003 0 53 1.0 5.0 0.00 0.67 0.00 1015.9
20260906055459 0 66 2.0 7.0 0.00 0.67 0.00 1015.9
20260906055000 0 38 2.0 7.0 0.00 0.67 0.00 1015.8
20260906054000 0 13 3.0 7.0 0.00 0.67 0.00 1015.6
20260906053500 0 70 4.0 6.0 0.00 0.67 0.00 1015.6
20260906052959 0 55 3.0 6.0 0.00 0.67 0.00 1015.6
20260906052500 0 47 2.0 6.0 0.00 0.67 0.00 1015.6
20260906052000 0 49 3.0 6.0 0.00 0.67 0.00 1015.7
20260906051459 0 51 2.0 6.0 0.00 0.67 0.00 1015.6
20260906051001 0 50 2.0 6.0 0.00 0.67 0.00 1015.6
20260906050500 0 46 3.0 5.0 0.00 0.67 0.00 1015.6
20260906050007 0 62 3.0 4.0 0.00 0.67 0.00 1015.6
20260906045502 0 66 1.0 5.0 0.00 0.67 0.00 1015.6
20260906045002 0 45 2.0 5.0 0.00 0.67 0.00 1015.5
20260906044503 0 59 3.0 5.0 0.00 0.67 0.00 1015.4
20260906044002 0 44 2.0 5.0 0.00 0.67 0.00 1015.3
20260906043502 0 74 3.0 6.0 0.00 0.67 0.00 1015.3
20260906043004 0 64 2.0 7.0 0.00 0.67 0.00 1015.4
20260906042503 0 60 2.0 8.0 0.00 0.67 0.00 1015.3
20260906042002 0 48 4.0 8.0 0.00 0.67 0.00 1015.3
20260906041002 0 54 4.0 9.0 0.00 0.67 0.00 1015.3
20260906040502 0 65 4.0 9.0 0.00 0.67 0.00 1015.3
20260906040006 0 53 3.0 7.0 0.00 0.67 0.00 1015.3
20260906035504 0 83 2.0 7.0 0.00 0.67 0.67 1015.4
20260906035003 0 50 3.0 7.0 0.00 0.67 0.67 1015.4
20260906034501 0 49 2.0 8.0 0.00 0.67 0.67 1015.4
20260906034002 0 49 3.0 8.0 0.00 0.67 0.67 1015.4
20260906033504 0 80 4.0 10.0 0.00 0.67 0.67 1015.4
20260906033004 0 34 5.0 10.0 0.00 0.67 0.67 1015.4
20260906032502 0 39 3.0 6.0 0.00 0.67 0.67 1015.4
20260906032002 0 46 3.0 8.0 0.00 0.67 0.67 1015.4
20260906031502 0 41 4.0 8.0 0.00 0.67 0.67 1015.4
20260906031004 0 50 4.0 9.0 0.00 0.67 0.67 90 1015.3
20260906030502 0 75 4.0 9.0 0.00 0.67 0.67 1015.1
20260906025504 73 78 3.0 9.0 0.00 0.67 0.67 90 1014.9
20260906025003 73 73 6.0 9.0 0.00 0.67 0.67 90 1014.9
20260906024502 73 76 4.0 9.0 0.00 0.67 0.67 90 1014.8
20260906024002 74 45 3.0 10.0 0.00 0.67 0.67 90 1014.8
20260906023503 74 61 4.0 11.0 0.00 0.67 0.67 90 1014.8
20260906023002 74 70 5.0 11.0 0.00 0.67 0.67 90 1014.7
20260906022004 0 52 4.0 10.0 0.00 0.67 0.67 90 1014.7
20260906021502 74 81 6.0 12.0 0.00 0.67 0.67 90 1014.6
20260906021002 75 59 7.0 14.0 0.00 0.67 0.67 1014.5
20260906020503 75 79 6.0 14.0 0.00 0.67 0.67 90 1014.5
20260906020006 74 84 6.0 9.0 0.00 0.67 0.67 91 1014.6
20260906015502 74 34 5.0 11.0 0.00 0.67 0.67 91 1014.5
20260906015005 74 70 3.0 9.0 0.00 0.67 0.67 92 1014.3
20260906014502 74 86 4.0 9.0 0.00 0.67 0.67 92 1014.2
20260906014003 74 69 4.0 6.0 0.00 0.67 0.67 1014.1
20260906013504 0 78 3.0 8.0 0.00 0.67 0.67 1014.1
20260906013002 0 76 4.0 8.0 0.00 0.67 0.67 1 1014.0
20260906012502 0 59 4.0 7.0 0.00 0.67 0.67 1 1014.0
20260906012003 0 70 4.0 10.0 0.00 0.67 0.67 1013.9
20260906011503 0 78 4.0 11.0 0.00 0.67 0.67 1013.7
20260906011003 0 75 5.0 11.0 0.00 0.67 0.67 1 1013.6
20260906010503 0 69 4.0 8.0 0.00 0.67 0.67 1013.4
20260906010006 0 62 4.0 8.0 0.00 0.67 0.67 1013.4
20260906005503 0 73 3.0 7.0 0.00 0.67 0.67 1013.3
20260906005003 0 49 4.0 8.0 0.00 0.67 0.67 1013.2
20260906004503 75 331 4.0 7.0 0.00 0.67 0.67 1013.2
20260906004002 75 32 0.0 1.0 0.00 0.67 0.67 1013.1
20260906003502 0 32 0.0 1.0 0.00 0.67 0.67 1 1013.1
20260906003003 0 32 0.0 1.0 0.00 0.67 0.67 90 1013.0
20260906002503 75 32 0.0 1.0 0.00 0.67 0.67 90 1012.9
20260906002005 75 32 0.0 1.0 0.00 0.67 0.67 91 1012.7
20260906001502 75 32 0.0 1.0 0.00 0.67 0.67 91 1012.7
20260906001002 75 32 0.0 1.0 0.00 0.67 0.67 91 1012.7
20260906000502 76 32 0.0 0.0 0.00 0.67 0.67 91 1012.7
20260905235503 76 32 0.0 0.0 0.00 0.67 0.67 91 1013.0
20260905235003 76 32 0.0 0.0 0.00 0.67 0.67 91 1013.0
20260905234005 77 32 0.0 1.0 0.00 0.67 0.67 91 1013.0
20260905233503 78 32 0.0 0.0 0.00 0.67 0.67 90 1012.9
20260905233002 77 32 0.0 0.0 0.00 0.67 0.67 90 1012.8
20260905232502 77 32 0.0 0.0 0.00 0.67 0.67 90 1012.8
20260905232003 77 32 0.0 0.0 0.00 0.67 0.67 90 1012.8
20260905231502 76 32 0.0 1.0 0.00 0.67 0.67 90 1012.9
20260905231002 76 32 0.0 3.0 0.04 0.67 0.67 90 1012.8
20260905230502 75 32 1.0 3.0 0.04 0.67 0.67 90 1012.6
20260905225501 75 32 0.0 3.0 0.04 0.67 0.67 90 1012.5
20260905225002 75 32 2.0 3.0 0.22 0.67 0.67 90 1012.6
20260905224501 74 32 1.0 3.0 0.49 0.67 0.67 90 1012.6
20260905224006 74 32 0.0 2.0 0.62 0.67 0.67 90 1012.6
20260905223502 73 156 0.0 1.0 0.67 0.67 0.67 90 1012.5
20260905223002 72 156 0.0 3.0 0.67 0.67 0.67 90 1012.5
20260905222503 71 160 1.0 3.0 0.67 0.67 0.67 90 1012.7
20260905222001 71 234 0.0 2.0 0.67 0.67 0.67 90 1013.0
20260905221502 70 156 0.0 10.0 0.67 0.67 0.67 91 1013.0
20260905221003 70 71 7.0 10.0 0.63 0.63 0.63 91 1012.8
20260905220502 69 92 3.0 9.0 0.63 0.63 0.63 92 1012.5
20260905220005 69 264 2.0 34.0 0.63 0.63 0.63 92 1012.4
20260905215502 70 259 6.0 41.0 0.61 0.61 0.61 90 1013.2
20260905214001 85 44 9.0 17.0 0.03 0.03 0.03 65 1012.7
20260905213501 88 63 9.0 17.0 0.00 0.00 0.00 62 1012.4
20260905213001 89 337 4.0 10.0 0.00 0.00 0.00 65 1012.0
20260905212504 89 303 7.0 10.0 0.00 0.00 0.00 65 1011.8
20260905212002 88 275 6.0 11.0 0.00 0.00 0.00 66 1012.0
20260905211501 88 294 7.0 11.0 0.00 0.00 0.00 63 1012.3
20260905211001 88 321 6.0 8.0 0.00 0.00 0.00 65 1012.2
20260905210501 88 286 5.0 10.0 0.00 0.00 0.00 65 1012.1
20260905210005 89 290 5.0 10.0 0.00 0.00 0.00 67 1012.0
20260905205502 89 295 4.0 8.0 0.00 0.00 0.00 65 1012.0
20260905205001 89 270 6.0 8.0 0.00 0.00 0.00 65 1012.1
20260905204502 89 282 5.0 8.0 0.00 0.00 0.00 66 1012.2
20260905204002 89 328 1.0 9.0 0.00 0.00 0.00 66 1012.2
20260905203501 88 289 5.0 9.0 0.00 0.00 0.00 67 1012.3
20260905203001 88 283 6.0 8.0 0.00 0.00 0.00 65 1012.3
20260905202501 88 290 4.0 7.0 0.00 0.00 0.00 67 1012.4
20260905202001 88 294 5.0 7.0 0.00 0.00 0.00 67 1012.5
20260905201502 88 271 4.0 7.0 0.00 0.00 0.00 66 1012.6
20260905201003 89 296 4.0 6.0 0.00 0.00 0.00 65 1012.5
20260905200501 89 349 2.0 10.0 0.00 0.00 0.00 66 1012.6
20260905200003 89 290 2.0 10.0 0.00 0.00 0.00 65 1012.8
20260905195502 89 302 5.0 8.0 0.00 0.00 0.00 65 1012.8
20260905195004 88 344 4.0 9.0 0.00 0.00 0.00 67 1012.8
20260905194501 88 45 2.0 9.0 0.00 0.00 0.00 69 1012.7
20260905194001 87 286 6.0 9.0 0.00 0.00 0.00 67 1012.8
20260905193502 87 297 4.0 8.0 0.00 0.00 0.00 68 1013.0
20260905193001 88 281 5.0 8.0 0.00 0.00 0.00 66 1013.0
20260905192502 88 23 3.0 7.0 0.00 0.00 0.00 67 1013.1
20260905192002 88 302 3.0 6.0 0.00 0.00 0.00 65 1013.0
20260905191501 88 288 3.0 11.0 0.00 0.00 0.00 65 1013.0
20260905191002 88 281 7.0 11.0 0.00 0.00 0.00 65 1013.1
20260905190004 89 302 4.0 10.0 0.00 0.00 0.00 65 1013.2
20260905185002 89 280 7.0 11.0 0.00 0.00 0.00 63 1013.3
20260905184501 89 287 7.0 10.0 0.00 0.00 0.00 63 1013.4
20260905184001 88 251 4.0 12.0 0.00 0.00 0.00 62 1013.4
20260905183501 88 263 6.0 12.0 0.00 0.00 0.00 62 1013.5
20260905183002 88 272 5.0 11.0 0.00 0.00 0.00 63 1013.6
20260905182501 88 222 6.0 10.0 0.00 0.00 0.00 62 1013.5
20260905182002 87 268 6.0 12.0 0.00 0.00 0.00 62 1013.7
20260905180005 87 241 7.0 12.0 0.00 0.00 0.00 61 1013.8
20260905175502 87 220 8.0 10.0 0.00 0.00 0.00 61 1013.8
20260905175002 87 303 6.0 10.0 0.00 0.00 0.00 62 1013.8
20260905174502 86 232 6.0 10.0 0.00 0.00 0.00 63 1013.9
20260905174001 86 256 6.0 9.0 0.00 0.00 0.00 62 1013.9
20260905173501 86 167 3.0 10.0 0.00 0.00 0.00 64 1014.1
20260905173001 86 255 7.0 10.0 0.00 0.00 0.00 61 1014.2
20260905172503 85 238 6.0 8.0 0.00 0.00 0.00 64 1014.2
20260905172004 84 266 4.0 9.0 0.00 0.00 0.00 66 1014.3
20260905171501 84 293 5.0 10.0 0.00 0.00 0.00 65 1014.4
20260905171001 84 234 6.0 10.0 0.00 0.00 0.00 64 1014.5
20260905170501 83 193 5.0 9.0 0.00 0.00 0.00 65 1014.6
20260905170004 83 206 6.0 9.0 0.00 0.00 0.00 64 1014.7
20260905165501 83 162 5.0 9.0 0.00 0.00 0.00 64 1014.8
20260905165003 83 136 6.0 10.0 0.00 0.00 0.00 64 1014.8
20260905164501 83 210 6.0 10.0 0.00 0.00 0.00 65 1014.8
20260905164002 83 220 5.0 10.0 0.00 0.00 0.00 64 1014.9